Location: Georgenberg
(48.1500°N, 16.2500°E)
Time: 04:11:50
(UTC+01:00)

N. Korean satellite - Pass Details

Date: 28 November 2022
Orbit: 407 x 444 km, 97.3° (Epoch: 28 January)

Event Time Altitude Azimuth Distance (km) Brightness Sun altitude
Rises 17:20:21 0° 207° (SSW) 2,429 10.9 -12.1°
Reaches altitude 10° 17:23:00 10° 232° (SW) 1,579 10.4 -12.6°
Maximum altitude 17:25:04 15° 269° (W) 1,309 9.9 -12.9°
Drops below altitude 10° 17:27:09 10° 307° (NW) 1,609 9.7 -13.2°
Sets 17:29:55 0° 331° (NNW) 2,503 10.3 -13.7°
